Regional Weather Roundup
Issued by NWS

Home | Current Version | Previous Version | Graphics & Text | Print | Product List | Glossary Off
Versions: 1 2 3 4 5 6 7 8 9 10 11 12 13 14 15 16 17 18 19 20 21 22 23 24 25 26 27 28 29 30 31 32 33 34 35 36 37 38 39 40 41 42 43 44 45 46 47 48 49

000
ASUS43 KDMX 281507
RWRIA

WEATHER ROUNDUP FOR IOWA
NATIONAL WEATHER SERVICE DES MOINES IA
1000 AM CDT THU MAY 28 2015

NOTE: "FAIR" INDICATES FEW OR NO CLOUDS BELOW 12,000 FEET WITH NO
SIGNIFICANT WEATHER AND/OR OBSTRUCTIONS TO VISIBILITY.

* - THESE STATIONS ARE NOT NWS STATIONS...THUS NOT UNDER NWS
QUALITY CONTROL.  THEY ALSO DO NOT REPORT WEATHER SUCH
AS PRECIPITATION OR FOG.

IAZ001>003-012>014-020>022-031>034-043>046-281600-
   NORTHWEST IOWA

CITY           SKY/WX    TMP DP  RH WIND       PRES   REMARKS
CARROLL *      SUNNY     73  59  60 S14       30.08F
CHEROKEE *     MOSUNNY   73  57  56 S15G22    30.05F
DENISON *      SUNNY     70  59  68 S13       30.05F
LE MARS *      SUNNY     75  55  50 S23G31    30.04F
ORANGE CITY *  SUNNY     72  54  53 S20G25    30.04F
SHELDON *      SUNNY     75  55  50 S17G26    30.04S
SIOUX CITY     MOSUNNY   72  57  59 S15       30.04F
SPENCER        MOSUNNY   75  56  51 S15       30.06F
STORM LAKE *   SUNNY     72  55  56 S21       30.07F
$$

IAZ055>058-069>071-079>083-090>094-281600-
   SOUTHWEST IOWA

CITY           SKY/WX    TMP DP  RH WIND       PRES   REMARKS
ATLANTIC *     SUNNY     68  59  73 S10G16    30.08F
AUDUBON *      SUNNY     70  61  73 S13       30.09F
CLARINDA *     SUNNY     66  59  77 SE10      30.09F
COUNCIL BLFS * SUNNY     66  61  82 SE12      30.05F
CRESTON *      SUNNY     70  61  73 S16       30.10F
HARLAN  *      SUNNY     70  63  78 S10       30.10F
LAMONI         CLOUDY    72  60  66 S12G21    30.13R
RED OAK *      SUNNY     68  61  77 S12       30.07F
SHENANDOAH *   PTSUNNY   66  63  88 SE13G18   30.05F
$$

IAZ047>049-059>061-072>074-084-281600-
   CENTRAL IOWA

CITY           SKY/WX    TMP DP  RH WIND       PRES   REMARKS
AMES           PTSUNNY   73  60  63 S12       30.11F
ANKENY *       SUNNY     73  61  64 S10       30.10F
CHARITON *     SUNNY     72  61  68 S17       30.11F
DES MOINES     CLOUDY    74  59  59 S15       30.10F
GRINNELL*      MOSUNNY   73  59  60 SE13      30.14S
KNOXVILLE *    SUNNY     73  59  60 S10G18    30.11S
MARSHALLTOWN   PTSUNNY   73  57  57 S16       30.12F
PELLA *        MOSUNNY   73  63  68 S12G20    30.13F
PERRY *          N/A     73  59  60 S15       30.09F
$$

IAZ004>006-015-016-023>025-035-036-281600-
   NORTH CENTRAL IOWA

CITY           SKY/WX    TMP DP  RH WIND       PRES   REMARKS
ALGONA *       SUNNY     75  59  57 S18G25    30.08F
CLARION *      SUNNY     73 -38   1 S17       30.10F
ESTHERVILLE    MOSUNNY   72  57  59 S16       30.07F
FORT DODGE *   PTSUNNY   72  57  60 S12       30.10F
MASON CITY     MOSUNNY   75  58  55 S14       30.12F
FOREST CITY *  SUNNY     72  57  60 S15       30.10F
IOWA FALLS *     N/A     72  59  64 S12       30.13F
$$

IAZ007>011-017>019-026>030-037>042-050>054-066-281600-
   NORTHEAST IOWA

CITY           SKY/WX    TMP DP  RH WIND       PRES   REMARKS
CEDAR RAPIDS   PTSUNNY   73  62  68 S8        30.14F
CHARLES CITY * SUNNY     73  61  64 SW10G17   30.13F
CLINTON *      MOSUNNY   73  59  60 S10       30.20F
DECORAH *      SUNNY     73  59  60 VRB6G14   30.14F
DUBUQUE        MOSUNNY   74  59  59 S13       30.17F
MONTICELLO *   SUNNY     75  61  60 S12       30.15F
OELWEIN *      SUNNY     73  61  64 S12       30.15F
WATERLOO       PTSUNNY   72  60  66 S7        30.12F
$$

IAZ064-065-067-068-078-281600-
   EAST CENTRAL IOWA

CITY           SKY/WX    TMP DP  RH WIND       PRES   REMARKS
DAVENPORT      MOSUNNY   75  59  57 S10       30.18F
IOWA CITY      PTSUNNY   74  61  63 S10       30.16F
MT. PLEASANT * MOSUNNY   75  59  57 SE10      30.15F
MUSCATINE *    SUNNY     75  61  60 S8G17     30.16F
QUAD CITIES    MOSUNNY   77  59  53 S12       30.17F
$$

IAZ062-063-075>077-085>089-095>099-281600-
   SOUTHEAST IOWA

CITY           SKY/WX    TMP DP  RH WIND       PRES   REMARKS
BURLINGTON     MOSUNNY   75  59  57 SE8       30.16F
FAIRFIELD *    SUNNY     73  59  60 SE13      30.14F
FORT MADISON * SUNNY     73  61  64 SE9       30.16F
KEOKUK *       SUNNY     73  61  64 SE12      30.14F
OSKALOOSA *      N/A     73  59  60 SE20      30.13F
CENTERVILLE *  SUNNY     72  72 100 SE9       30.14F
OTTUMWA        MOSUNNY   73  60  63 SE13      30.12F
WASHINGTON *   SUNNY     75  59  57 SE14      30.16F
$$

ABBREVIATIONS USED IN REMARKS
   TC - TEMPERATURES IN CELSIUS
  WCI - WIND CHILL INDEX
   HX - HEAT INDEX
  VSB - VISIBILITY
$$




USA.gov is the U.S. government's official web portal to all federal, state and local government web resources and services.